Wind_Speed
56 57 56 55 54 54 54 55 56 58 59 59 60 61 63 66 67 66 65 64 64 64 65 63 61 59 58 58 58 58 58 58 57 56 55 54 53 52 52 52 53 55 56 56 56 57 58 57 57 57 57 57 57 57 56 55 55 54 54 54 52 52 51
55 55 55 54 54 55 56 58 59 60 61 61 61 61 62 64 66 66 65 64 65 64 63 60 58 57 56 57 57 58 58 57 56 55 54 53 52 52 52 52 53 54 56 57 57 58 59 58 58 58 57 56 56 55 54 53 52 52 53 53 52 51 50
54 54 54 54 55 57 58 59 59 59 60 61 61 60 60 62 63 63 62 62 61 59 57 56 56 56 56 56 57 57 57 56 55 54 53 52 52 52 53 53 53 54 56 57 58 58 58 58 57 58 56 54 54 53 52 51 50 50 51 51 50 50 49
54 54 55 55 56 57 57 58 58 58 58 59 59 58 57 59 59 59 57 56 55 53 52 54 55 55 56 56 57 57 56 55 54 52 51 51 51 51 52 53 54 54 55 57 59 59 58 57 56 56 55 53 52 52 51 50 50 49 50 50 49 49 48
54 55 55 56 56 56 57 57 56 56 56 57 57 55 55 56 56 54 52 49 48 49 51 53 55 55 56 57 57 57 56 55 53 52 50 50 50 50 51 52 53 54 55 56 58 59 58 57 55 54 52 51 51 51 50 50 49 49 48 48 48 47 46
55 55 55 56 57 57 57 56 55 55 55 54 54 53 53 53 51 48 46 45 47 49 52 54 55 55 56 57 57 56 55 54 53 52 50 50 49 49 50 51 52 53 54 55 57 57 57 56 54 52 51 49 50 51 51 50 49 48 47 47 47 46 45
55 55 56 57 57 57 55 54 53 53 52 51 51 51 50 48 45 44 45 46 48 50 52 54 55 55 56 56 55 54 54 53 52 51 51 50 49 49 50 51 52 53 54 55 56 56 55 54 52 51 50 48 48 50 51 49 48 48 47 46 46 45 45
55 56 57 57 56 55 53 53 51 50 49 48 48 47 45 44 44 45 46 47 49 51 53 54 55 55 55 54 54 53 53 52 51 50 50 50 49 49 50 51 52 53 54 55 55 55 53 52 51 51 49 47 47 49 49 48 48 48 47 46 45 45 44
56 56 56 55 54 53 52 50 49 48 47 47 46 46 45 46 46 46 47 48 50 52 54 55 55 54 53 52 52 52 51 50 50 50 50 49 49 49 50 51 51 52 53 54 54 54 51 50 50 49 48 47 47 47 47 47 47 47 46 45 45 44 44
55 55 55 54 52 51 49 48 47 47 47 47 47 46 46 47 47 47 48 50 52 53 54 55 54 53 52 51 51 50 49 49 49 49 49 48 49 49 50 51 52 52 52 52 53 52 50 50 50 48 47 46 46 46 46 45 45 46 45 45 45 45 43
54 54 53 51 50 48 48 47 47 48 48 47 47 46 47 47 47 47 49 51 52 53 54 54 53 52 51 51 50 49 47 47 47 48 47 48 48 49 50 51 52 52 52 52 51 50 49 50 49 46 45 45 45 45 45 44 44 45 44 45 45 45 43
53 52 51 49 48 47 47 47 47 48 47 47 46 46 46 46 46 48 49 51 53 54 54 53 52 51 50 50 49 47 47 47 47 47 47 47 48 49 50 51 51 51 51 50 50 49 49 49 47 45 44 43 43 43 44 44 44 44 44 44 45 44 42
51 50 49 49 48 48 48 48 47 46 45 45 44 45 46 46 47 48 50 52 54 54 53 52 50 50 49 49 48 47 46 46 46 46 46 47 48 49 50 50 49 50 50 49 49 49 49 47 46 44 42 41 41 43 43 44 44 43 43 43 43 42 41
49 49 49 49 48 48 48 47 46 44 43 43 43 43 46 47 48 50 51 53 53 52 52 50 49 49 48 47 47 47 46 46 45 45 46 46 48 49 49 49 48 48 48 48 49 50 49 46 45 44 42 40 41 43 43 44 44 43 43 43 42 41 41
49 48 48 48 47 46 46 45 43 42 41 42 42 43 45 48 51 52 52 52 52 51 50 48 47 47 47 47 47 46 45 45 44 44 45 46 48 49 49 49 48 46 44 45 47 49 48 46 44 43 42 41 41 42 43 43 44 44 43 43 43 42 42
47 47 46 46 45 45 44 43 42 41 41 41 42 44 46 49 51 51 51 51 51 51 50 48 46 46 45 45 45 45 44 44 44 45 46 47 49 49 48 48 45 43 42 44 45 46 46 45 44 43 43 42 41 42 41 41 42 42 41 42 43 43 42
46 45 44 44 43 43 43 42 41 41 41 42 43 45 47 48 48 49 50 50 50 50 50 49 48 47 46 45 44 43 43 43 44 46 47 48 49 48 48 46 42 40 40 42 43 43 43 43 42 41 41 39 39 39 38 40 42 42 41 42 43 43 42
45 44 43 43 42 42 42 41 40 40 41 42 43 44 45 46 47 48 49 49 49 49 48 48 48 48 47 47 45 44 43 43 44 45 47 49 49 48 47 44 40 39 39 39 40 41 42 42 40 38 38 38 38 38 37 41 45 45 43 44 45 43 43
44 43 42 42 41 41 41 40 40 40 40 40 41 42 43 45 47 48 49 49 48 48 48 48 48 47 47 47 46 45 44 43 43 45 47 47 48 50 49 44 40 39 39 38 39 39 40 42 41 40 39 40 40 39 39 42 46 46 46 47 46 44 44
43 42 41 41 40 40 40 40 39 38 37 38 39 41 43 46 47 48 48 48 48 48 48 48 47 46 46 45 45 44 43 42 43 44 46 47 48 50 48 44 42 41 39 38 39 39 40 42 42 41 41 41 40 39 39 40 42 43 45 46 46 46 46
41 41 40 40 39 39 38 37 37 36 36 37 39 41 43 46 48 48 48 48 48 48 48 48 47 46 45 44 44 43 42 42 42 42 44 46 49 49 47 45 45 44 40 38 39 39 40 41 41 41 41 40 39 37 37 37 37 37 38 41 43 44 45
39 39 38 38 37 37 36 35 35 35 36 37 40 42 43 46 47 47 48 49 49 49 48 47 47 46 45 44 44 43 42 41 41 41 43 45 47 47 45 43 44 44 43 41 39 39 39 40 40 39 38 37 37 36 36 36 36 35 35 37 39 41 43
37 37 36 36 36 35 35 35 35 36 37 38 40 42 43 45 46 46 48 49 49 49 48 47 47 46 45 44 44 43 42 42 42 42 43 44 44 44 42 41 42 44 45 43 42 40 39 39 39 38 36 35 36 36 36 37 37 37 36 37 38 39 41
35 35 35 35 35 35 35 36 36 37 37 38 39 41 43 44 45 45 46 48 49 50 49 48 47 46 45 44 44 43 43 43 44 44 43 44 44 44 43 43 44 44 44 44 44 42 40 39 39 38 37 35 35 36 37 38 39 38 37 36 36 37 38
35 35 35 35 35 35 35 36 37 37 38 38 39 41 42 43 44 44 45 47 48 49 49 48 47 45 44 44 44 44 44 45 45 44 43 44 45 45 45 45 44 43 43 45 45 44 42 40 40 40 39 37 36 37 38 39 39 38 36 34 34 34 35
35 36 36 36 36 36 37 37 38 38 38 38 39 40 40 42 43 44 45 46 46 47 47 47 47 46 45 45 46 46 46 46 46 45 44 44 44 44 46 46 45 43 43 43 43 43 43 41 41 41 41 41 40 40 39 39 39 38 36 34 34 34 34
36 36 37 37 38 38 39 39 39 39 39 40 40 40 40 41 42 43 44 45 45 44 45 46 46 47 47 47 47 47 47 47 46 45 44 44 43 44 46 47 46 44 43 42 42 42 42 42 42 42 43 43 43 41 41 40 40 39 38 37 37 36 34
37 37 37 39 39 40 40 40 40 39 40 41 42 41 40 40 40 41 42 44 44 44 45 46 47 48 48 48 48 47 47 46 46 45 44 43 43 43 44 45 45 44 43 41 41 41 41 42 43 44 44 44 44 43 42 42 41 41 40 39 39 39 36
39 38 39 40 41 41 41 41 40 40 41 42 43 42 40 40 39 40 41 42 43 44 45 47 48 48 48 47 47 47 46 45 44 44 43 43 42 42 42 42 42 42 41 40 40 41 41 42 43 44 44 44 44 44 43 43 42 42 41 41 41 40 37
39 40 40 41 41 41 42 41 41 41 42 42 42 42 41 41 40 41 41 41 42 44 46 47 48 47 46 45 45 45 45 44 43 43 42 41 40 40 40 39 39 39 38 38 38 39 40 41 42 43 44 45 45 44 44 44 43 43 42 42 41 41 39
38 39 41 42 43 43 42 42 41 41 41 41 40 41 41 41 42 42 42 43 43 44 45 46 46 46 45 44 44 45 44 43 42 42 41 40 39 39 39 38 38 37 36 37 37 38 39 41 42 43 44 45 46 46 45 45 44 43 43 42 42 42 41
37 38 39 41 42 43 43 43 43 42 41 40 40 40 41 41 41 40 41 42 44 45 47 47 47 47 46 45 44 44 43 43 42 41 40 40 40 39 39 38 38 37 37 38 39 39 40 41 42 43 44 46 47 47 47 46 45 44 43 43 43 43 42
38 38 39 40 40 41 42 42 43 43 42 42 42 42 42 42 42 41 40 41 42 45 46 47 48 48 47 45 44 43 42 43 42 42 41 41 41 40 39 38 38 38 38 38 39 40 40 41 42 43 44 45 46 47 47 46 45 44 43 44 44 43 43
36 37 39 39 39 39 40 41 41 42 42 42 42 43 43 43 43 42 40 40 41 42 43 44 45 46 46 46 45 44 43 43 43 43 43 42 41 41 40 39 39 39 38 38 38 39 40 41 42 43 43 44 45 46 46 45 44 43 43 44 44 43 43
35 36 37 37 37 38 39 40 40 41 41 41 42 42 42 43 43 42 40 38 39 39 40 41 42 43 43 44 44 43 43 43 43 43 44 43 42 42 41 41 41 40 38 37 37 38 39 40 41 41 41 42 43 43 44 44 44 43 43 43 43 43 43
37 36 36 36 37 38 39 39 40 40 40 40 40 41 42 44 44 43 42 40 39 39 39 40 41 41 42 43 43 43 43 42 42 42 43 43 42 42 42 42 42 41 40 39 37 37 37 38 39 39 40 40 40 41 41 41 42 42 42 42 42 42 42
Wind_Direction
279 280 281 282 281 280 280 280 280 280 279 278 277 275 272 269 269 269 271 273 273 274 275 275 275 276 279 284 289 292 294 293 291 289 289 289 288 287 287 287 288 289 289 290 291 292 292 292 292 292 292 292 291 291 291 292 292 291 289 287 285 284 283
278 279 280 280 279 279 280 281 281 281 281 279 278 276 275 272 270 270 271 272 272 273 273 273 273 276 281 286 289 291 292 291 290 289 289 288 288 287 287 288 288 289 290 290 292 292 292 293 292 292 292 292 292 292 292 291 290 289 288 287 286 285 284
278 278 278 278 278 279 280 282 283 283 281 280 278 277 276 275 273 271 271 271 272 272 271 271 273 278 283 287 289 290 291 289 288 288 288 287 287 287 288 288 289 290 291 291 292 292 292 293 292 292 293 293 293 293 292 290 289 287 286 286 287 286 285
277 277 277 277 278 280 282 283 284 283 281 280 279 278 277 276 273 272 271 271 270 269 269 271 276 280 284 286 288 289 289 288 287 287 287 286 286 287 287 288 289 290 291 292 292 292 292 292 291 292 293 293 292 291 290 289 288 287 287 287 287 286 284
276 276 277 278 280 282 283 284 283 282 280 280 279 278 277 276 274 272 270 268 267 268 271 275 278 281 284 286 288 288 287 286 286 286 285 285 286 286 287 288 289 290 291 291 291 292 291 291 291 292 292 292 291 290 289 288 287 287 287 287 287 286 284
277 277 278 280 282 283 284 283 282 281 280 279 278 278 276 275 272 270 267 267 269 271 274 276 279 281 284 285 286 286 285 285 285 285 285 285 285 286 286 287 288 289 289 289 290 290 290 290 290 291 291 291 289 289 288 288 288 288 288 287 286 284 283
278 279 280 282 283 284 284 283 282 281 280 278 277 276 273 271 269 268 269 270 272 273 274 276 279 281 283 284 284 283 284 284 284 284 285 285 286 286 286 287 288 288 288 288 288 288 288 288 289 289 289 289 288 287 288 289 289 288 287 287 286 285 284
279 281 282 283 284 284 284 283 281 280 278 277 275 272 271 271 272 272 272 272 272 272 274 277 279 281 282 282 282 282 283 283 284 285 285 286 286 286 286 287 287 287 287 287 287 287 287 288 288 288 288 288 287 287 288 290 289 288 287 287 286 285 284
281 282 284 284 285 284 283 281 279 277 276 274 273 273 273 274 274 273 272 271 271 272 274 276 278 280 280 281 281 282 282 283 284 285 285 286 286 286 286 286 287 287 287 287 287 287 288 287 287 287 288 288 287 287 288 288 288 287 288 287 286 284 283
283 284 285 285 284 283 281 280 278 276 275 274 274 275 274 273 272 271 270 270 271 272 274 276 277 278 278 279 280 281 282 283 284 284 285 286 286 286 286 286 286 286 286 285 285 286 287 287 286 287 288 287 287 287 287 287 286 286 286 285 284 283 282
285 285 285 285 284 282 280 279 278 277 276 276 275 274 273 272 270 269 268 269 270 272 274 276 276 277 278 279 280 281 282 283 283 284 285 285 285 285 285 285 285 286 285 285 285 286 286 285 286 288 288 287 287 287 287 286 284 284 284 284 284 284 283
285 285 285 284 282 281 280 279 277 277 276 276 274 273 271 269 268 268 268 269 271 272 274 275 276 277 279 280 281 282 282 282 283 284 284 284 284 284 284 284 285 284 284 284 285 285 285 285 287 288 287 286 286 286 284 283 282 283 284 284 284 284 283
284 284 283 282 281 280 279 277 276 276 275 274 272 270 269 268 267 267 268 270 271 273 273 274 276 278 279 280 281 281 282 283 283 284 284 283 283 283 284 284 284 284 284 285 285 285 285 286 288 287 286 285 284 282 282 282 282 283 284 283 283 283 281
283 283 282 281 280 279 278 277 276 275 273 271 269 268 268 268 267 267 268 269 270 271 273 275 277 278 279 280 281 282 283 283 283 283 283 283 283 283 283 282 282 282 284 286 286 285 285 287 286 286 285 283 281 281 282 283 283 284 284 283 281 279 276
283 282 282 281 280 279 278 278 276 274 271 269 267 266 267 268 269 269 269 269 269 270 272 274 275 277 278 280 281 282 282 282 282 281 281 280 280 280 280 279 279 280 281 282 282 283 285 286 285 284 282 280 280 280 281 282 283 283 283 281 279 276 273
283 283 282 281 281 280 279 277 275 272 269 267 266 265 266 267 269 270 270 271 272 273 275 276 277 277 278 279 280 281 281 281 280 279 278 278 278 278 278 277 278 279 280 279 279 281 283 283 282 281 279 278 278 278 280 281 280 280 280 279 277 276 274
284 283 283 282 281 280 279 276 273 270 267 266 265 265 266 267 268 269 271 273 274 276 278 280 281 281 281 280 281 281 280 279 279 278 278 277 277 277 276 276 277 278 277 278 279 280 280 279 278 278 277 277 277 279 280 280 280 281 281 279 279 278 276
285 284 284 283 281 280 278 275 271 268 266 265 265 265 266 267 268 269 271 273 275 278 280 281 282 283 284 284 284 283 281 280 280 280 280 280 280 279 277 278 279 278 276 276 277 278 277 276 274 272 271 271 272 272 271 272 277 280 279 278 280 280 279
286 285 284 283 281 279 277 274 271 268 266 266 266 266 267 268 269 271 273 274 277 279 280 281 282 282 283 284 284 284 283 282 281 281 281 282 282 281 281 282 282 279 276 275 274 274 273 273 271 269 268 268 269 270 268 268 272 276 276 278 280 280 279
287 286 285 283 281 279 276 274 272 269 267 266 267 268 270 271 272 274 275 277 278 279 280 281 282 282 283 283 283 283 282 281 281 281 282 281 280 280 283 285 283 279 277 275 274 273 271 270 270 269 269 269 270 272 272 271 270 272 274 277 279 279 279
288 287 286 284 281 279 276 274 272 270 268 268 269 270 272 273 275 277 278 279 280 280 281 282 282 283 282 282 281 281 280 279 279 279 279 279 280 282 284 285 283 282 280 277 275 273 271 269 269 269 269 271 272 272 274 274 272 272 272 273 274 274 275
290 288 286 284 282 280 277 274 272 271 270 270 272 273 274 276 277 279 280 280 281 282 282 282 282 282 281 281 280 279 278 277 275 274 275 276 278 281 283 283 282 281 280 279 278 276 274 273 272 271 271 272 273 273 274 274 274 273 271 270 269 269 270
291 289 287 285 283 281 278 276 274 273 273 274 274 275 276 277 279 280 281 281 282 282 282 282 282 282 282 281 280 279 277 275 273 272 272 273 275 276 276 275 275 277 280 282 281 280 278 276 275 274 273 272 272 273 273 274 274 273 272 271 270 270 269
291 289 288 286 284 282 280 278 277 276 276 276 277 277 278 279 279 280 280 281 282 282 282 283 283 282 282 281 279 278 277 275 273 273 273 273 273 273 273 273 275 278 281 281 281 280 279 278 276 275 273 271 269 268 268 269 270 271 272 272 272 272 271
292 290 288 287 285 284 282 280 280 279 279 279 278 278 279 279 279 279 279 279 281 283 284 285 284 283 281 280 278 277 276 274 274 274 274 275 275 276 276 277 278 279 279 278 279 279 279 278 277 276 276 273 270 268 267 268 270 272 272 272 271 271 270
292 291 290 288 287 285 283 282 281 281 281 280 279 278 278 278 278 279 279 279 280 282 283 283 283 282 280 278 277 276 276 275 276 276 276 276 276 277 278 278 278 278 277 276 276 276 276 276 275 275 275 275 273 272 273 273 275 276 277 276 275 273 271
292 291 291 290 288 287 286 286 285 285 284 282 280 279 278 278 278 279 280 280 280 280 279 279 279 278 277 277 276 276 277 277 277 278 278 278 277 277 277 278 278 277 275 274 272 270 270 271 271 271 272 272 273 274 275 275 276 277 278 279 278 277 276
294 293 292 291 290 289 289 289 289 288 287 285 284 283 282 282 281 280 279 279 279 278 277 276 276 276 276 276 277 277 277 278 278 278 278 277 276 275 275 276 276 275 273 271 269 267 266 267 267 268 269 270 271 272 273 274 275 276 277 278 278 278 279
297 296 295 293 293 292 292 292 291 290 288 286 286 286 285 283 281 279 278 278 278 278 277 276 276 276 276 277 278 278 278 278 277 277 276 275 275 274 273 272 272 273 272 270 268 266 266 266 266 266 267 268 269 270 271 272 273 274 275 276 276 277 279
298 298 297 296 295 294 294 293 293 291 290 290 290 289 288 286 283 281 280 279 278 277 277 278 278 278 278 278 277 277 277 276 276 275 275 274 274 273 272 271 270 270 270 269 267 266 266 266 266 266 267 268 268 269 270 271 272 273 274 274 275 277 277
299 299 298 297 297 296 295 294 293 291 290 290 290 290 289 288 288 288 287 285 284 282 281 281 280 280 280 279 278 278 278 278 277 277 276 275 274 272 271 271 269 268 267 266 265 264 264 264 265 266 267 268 268 269 269 271 272 273 274 275 275 276 276
299 298 297 297 297 297 297 296 295 294 293 292 290 289 288 288 288 287 286 286 287 286 284 283 282 282 282 281 280 280 281 280 279 277 276 275 273 271 270 269 269 267 265 264 264 263 263 264 265 266 267 267 268 269 269 270 271 273 274 274 274 275 276
300 299 298 297 297 297 297 296 296 295 295 294 293 292 291 289 287 285 283 282 282 282 283 284 285 285 285 284 282 282 281 279 278 277 275 274 273 272 271 270 269 268 266 265 265 265 265 265 265 265 266 267 268 268 269 269 270 270 271 272 274 275 276
301 300 299 298 297 296 295 294 294 294 294 293 292 291 290 288 287 285 284 282 281 280 281 281 282 282 283 283 282 281 280 280 280 279 278 277 276 275 274 273 271 269 268 267 267 267 266 266 266 266 266 266 266 267 268 268 269 269 269 271 273 275 276
303 301 300 299 297 295 294 293 293 293 293 293 292 291 290 288 287 287 286 284 282 281 281 279 279 279 279 279 279 278 277 277 278 278 278 278 278 277 277 275 274 273 272 270 269 268 267 267 267 266 266 266 266 266 266 267 268 268 269 270 272 274 276
306 304 302 300 299 297 295 295 294 293 293 292 292 290 289 289 289 288 286 284 282 281 280 279 278 278 277 277 277 276 275 275 274 274 274 275 275 275 275 275 275 275 275 273 272 270 269 269 268 268 267 267 267 266 266 266 267 268 269 271 272 274 275
Height
2944 2943 2943 2942 2941 2940 2939 2938 2937 2936 2936 2934 2934 2933 2932 2931 2930 2930 2931 2931 2930 2928 2927 2926 2925 2925 2924 2924 2923 2922 2921 2920 2919 2919 2918 2917 2916 2914 2913 2912 2910 2908 2909 2908 2905 2902 2902 2904 2902 2900 2900 2899 2897 2896 2896 2895 2893 2892 2890 2889 2889 2889 2889
2938 2937 2936 2935 2934 2933 2931 2931 2930 2929 2927 2926 2925 2925 2924 2923 2922 2922 2923 2922 2921 2920 2920 2918 2918 2917 2917 2916 2915 2914 2913 2913 2912 2912 2911 2909 2908 2907 2905 2904 2903 2901 2901 2900 2899 2895 2893 2895 2895 2893 2891 2891 2890 2889 2888 2888 2887 2884 2882 2881 2881 2881 2881
2931 2930 2929 2928 2926 2925 2924 2923 2922 2921 2920 2918 2917 2916 2915 2915 2914 2914 2914 2914 2913 2912 2912 2911 2910 2910 2910 2909 2908 2907 2906 2906 2906 2905 2904 2902 2900 2899 2898 2897 2895 2894 2893 2892 2891 2888 2885 2885 2886 2886 2884 2882 2882 2882 2880 2879 2879 2877 2875 2874 2874 2873 2873
2924 2923 2922 2920 2919 2918 2917 2916 2915 2913 2912 2910 2909 2908 2907 2907 2907 2906 2906 2906 2905 2905 2904 2904 2903 2903 2903 2901 2900 2899 2899 2899 2899 2898 2897 2895 2894 2892 2891 2890 2888 2887 2885 2884 2883 2881 2878 2876 2877 2879 2879 2876 2874 2874 2873 2871 2871 2870 2869 2868 2867 2866 2866
2917 2916 2914 2913 2912 2911 2910 2908 2907 2905 2904 2903 2901 2900 2900 2900 2899 2899 2899 2898 2898 2897 2897 2896 2896 2896 2895 2894 2892 2892 2892 2892 2892 2891 2890 2889 2888 2886 2885 2883 2882 2880 2879 2877 2875 2873 2871 2868 2868 2870 2872 2870 2867 2865 2865 2864 2864 2863 2862 2861 2860 2858 2858
2910 2908 2907 2906 2905 2903 2902 2900 2899 2897 2896 2895 2894 2893 2893 2893 2893 2892 2892 2891 2891 2891 2890 2889 2888 2888 2887 2886 2886 2886 2885 2885 2884 2883 2882 2882 2881 2880 2879 2877 2875 2874 2872 2870 2868 2867 2865 2863 2862 2862 2864 2864 2861 2858 2857 2857 2857 2857 2855 2854 2852 2852 2851
2902 2901 2900 2898 2897 2895 2894 2892 2891 2890 2888 2887 2887 2887 2887 2886 2886 2885 2885 2885 2884 2883 2883 2882 2881 2880 2880 2879 2879 2879 2878 2878 2877 2876 2875 2874 2874 2873 2871 2870 2868 2867 2865 2863 2861 2860 2859 2858 2857 2855 2856 2857 2856 2852 2850 2850 2849 2849 2848 2847 2845 2845 2845
2895 2893 2892 2891 2889 2887 2886 2885 2884 2883 2882 2881 2881 2881 2881 2880 2879 2879 2878 2878 2877 2876 2875 2874 2874 2874 2873 2873 2872 2872 2871 2870 2869 2869 2868 2867 2866 2865 2864 2863 2861 2859 2857 2855 2854 2853 2853 2852 2851 2849 2849 2850 2849 2846 2845 2844 2842 2841 2841 2840 2839 2838 2838
2887 2886 2884 2883 2881 2880 2879 2878 2877 2876 2876 2875 2875 2875 2874 2874 2873 2872 2871 2870 2870 2869 2868 2868 2867 2867 2867 2866 2866 2865 2864 2863 2863 2862 2861 2860 2859 2858 2856 2855 2853 2851 2850 2848 2846 2846 2846 2845 2843 2843 2843 2843 2842 2840 2839 2838 2835 2834 2834 2833 2831 2831 2831
2880 2878 2877 2875 2874 2873 2872 2871 2870 2870 2869 2869 2868 2868 2867 2866 2865 2865 2864 2863 2862 2862 2861 2861 2861 2861 2860 2860 2859 2858 2857 2857 2856 2855 2854 2853 2852 2850 2849 2847 2845 2844 2843 2841 2840 2840 2840 2837 2836 2837 2837 2835 2835 2834 2833 2831 2829 2828 2828 2826 2824 2824 2825
2872 2871 2870 2868 2867 2866 2865 2864 2864 2863 2862 2861 2861 2860 2859 2858 2858 2857 2856 2856 2855 2855 2854 2854 2854 2854 2854 2853 2852 2852 2851 2850 2849 2848 2848 2846 2845 2843 2841 2839 2837 2836 2835 2834 2833 2833 2832 2830 2830 2832 2831 2829 2829 2828 2826 2825 2823 2822 2821 2820 2818 2817 2818
2865 2863 2862 2861 2860 2859 2858 2857 2856 2856 2855 2854 2853 2852 2852 2851 2850 2850 2849 2849 2848 2848 2847 2847 2847 2847 2847 2846 2845 2845 2844 2843 2842 2842 2841 2839 2838 2835 2833 2832 2831 2829 2828 2827 2826 2826 2825 2823 2824 2825 2824 2823 2822 2821 2819 2818 2817 2816 2815 2814 2812 2811 2812
2858 2856 2855 2854 2853 2852 2851 2850 2849 2849 2848 2846 2845 2845 2844 2844 2844 2843 2842 2841 2841 2841 2840 2840 2841 2840 2840 2839 2839 2838 2837 2837 2836 2835 2833 2832 2830 2828 2826 2825 2824 2822 2821 2820 2820 2818 2817 2818 2818 2817 2818 2818 2816 2814 2813 2811 2811 2810 2809 2808 2806 2806 2806
2851 2849 2848 2847 2846 2845 2843 2843 2842 2842 2840 2839 2839 2838 2837 2837 2837 2836 2835 2835 2834 2834 2834 2834 2834 2834 2833 2833 2832 2831 2831 2830 2829 2828 2826 2824 2822 2821 2820 2819 2818 2816 2815 2814 2812 2809 2810 2812 2811 2810 2811 2811 2810 2808 2806 2805 2804 2804 2803 2802 2801 2800 2799
2844 2842 2841 2840 2839 2837 2836 2836 2836 2835 2834 2833 2833 2832 2830 2829 2829 2828 2828 2828 2828 2828 2828 2829 2829 2828 2827 2826 2825 2825 2824 2823 2822 2821 2819 2818 2816 2815 2814 2813 2813 2813 2812 2809 2806 2803 2803 2804 2805 2804 2804 2804 2803 2802 2800 2799 2798 2797 2796 2795 2794 2794 2793
2837 2836 2834 2833 2832 2831 2830 2830 2829 2828 2827 2827 2826 2826 2824 2822 2821 2821 2820 2819 2819 2820 2820 2821 2821 2821 2821 2820 2819 2819 2818 2817 2816 2814 2813 2811 2810 2809 2808 2807 2807 2808 2806 2804 2801 2799 2798 2798 2798 2798 2797 2797 2797 2796 2795 2793 2791 2790 2790 2788 2787 2787 2787
2830 2829 2828 2826 2825 2824 2824 2823 2823 2822 2821 2821 2820 2819 2818 2816 2815 2814 2813 2813 2812 2812 2812 2812 2812 2812 2813 2813 2813 2813 2812 2810 2808 2806 2805 2803 2802 2802 2801 2801 2803 2803 2800 2798 2796 2794 2793 2792 2792 2792 2791 2791 2790 2790 2789 2787 2783 2784 2785 2783 2781 2781 2781
2823 2822 2821 2820 2819 2818 2817 2817 2816 2815 2815 2814 2813 2812 2811 2810 2809 2808 2807 2807 2806 2806 2806 2805 2805 2804 2804 2804 2805 2805 2804 2802 2800 2797 2796 2794 2793 2793 2792 2794 2796 2795 2794 2793 2791 2789 2788 2786 2786 2787 2786 2786 2785 2785 2785 2781 2777 2778 2779 2777 2776 2776 2776
2817 2816 2815 2814 2813 2811 2811 2810 2810 2809 2809 2808 2807 2805 2804 2803 2802 2801 2801 2801 2801 2800 2800 2799 2798 2798 2797 2797 2797 2797 2796 2794 2792 2789 2787 2786 2784 2782 2782 2786 2788 2787 2786 2786 2785 2784 2782 2780 2780 2781 2781 2780 2780 2781 2780 2777 2774 2773 2772 2771 2771 2771 2771
2811 2810 2808 2807 2806 2805 2804 2804 2804 2803 2803 2801 2800 2799 2797 2796 2795 2794 2794 2794 2794 2793 2793 2792 2792 2792 2792 2791 2790 2789 2789 2787 2785 2782 2780 2779 2776 2774 2776 2779 2779 2778 2778 2779 2778 2778 2777 2774 2774 2774 2774 2774 2774 2775 2775 2774 2771 2769 2768 2766 2766 2766 2765
2805 2804 2802 2801 2800 2799 2799 2798 2798 2797 2797 2795 2794 2793 2791 2789 2788 2788 2787 2787 2786 2786 2785 2785 2785 2785 2785 2784 2783 2783 2782 2781 2780 2777 2774 2771 2769 2769 2770 2770 2769 2768 2770 2771 2771 2771 2770 2769 2768 2768 2767 2768 2768 2769 2769 2768 2767 2766 2765 2763 2762 2761 2760
2799 2798 2796 2795 2794 2794 2793 2793 2792 2791 2791 2789 2788 2787 2785 2783 2782 2781 2780 2779 2778 2778 2778 2778 2778 2777 2778 2777 2776 2776 2775 2775 2774 2772 2769 2766 2764 2764 2765 2763 2760 2759 2761 2763 2763 2763 2763 2763 2762 2762 2762 2762 2762 2763 2763 2762 2761 2761 2761 2759 2758 2758 2757
2793 2792 2790 2790 2789 2788 2788 2787 2786 2785 2784 2784 2782 2780 2779 2777 2776 2775 2773 2771 2771 2770 2770 2771 2770 2770 2770 2769 2768 2768 2768 2767 2766 2765 2763 2762 2761 2760 2759 2758 2755 2753 2753 2754 2755 2756 2756 2756 2756 2756 2757 2757 2757 2757 2757 2756 2755 2755 2755 2754 2754 2753 2753
2787 2786 2785 2784 2783 2783 2782 2781 2780 2779 2778 2777 2776 2774 2772 2771 2769 2768 2766 2764 2763 2762 2762 2763 2763 2763 2762 2761 2760 2760 2760 2759 2758 2757 2757 2756 2755 2754 2753 2751 2750 2749 2747 2746 2746 2747 2748 2749 2749 2750 2751 2752 2752 2752 2751 2750 2749 2749 2750 2750 2749 2749 2748
2782 2780 2779 2778 2778 2777 2776 2775 2774 2773 2772 2771 2770 2768 2766 2764 2763 2761 2760 2758 2756 2755 2754 2754 2755 2755 2754 2753 2752 2752 2751 2750 2750 2750 2750 2749 2748 2747 2746 2745 2745 2744 2743 2740 2739 2739 2740 2741 2742 2742 2743 2744 2745 2744 2744 2744 2744 2744 2744 2745 2744 2744 2743
2776 2775 2774 2773 2772 2771 2769 2768 2768 2767 2766 2765 2763 2761 2760 2758 2756 2754 2753 2751 2751 2750 2748 2747 2746 2746 2745 2745 2744 2743 2743 2742 2742 2742 2742 2742 2741 2740 2739 2738 2738 2738 2737 2736 2735 2734 2733 2734 2735 2735 2735 2735 2736 2736 2737 2737 2737 2737 2737 2738 2738 2737 2737
2771 2770 2768 2767 2765 2764 2763 2762 2761 2760 2759 2757 2755 2754 2753 2752 2750 2748 2746 2745 2744 2743 2742 2740 2739 2738 2737 2736 2736 2735 2735 2735 2735 2735 2735 2735 2735 2734 2732 2730 2731 2731 2731 2730 2730 2729 2728 2728 2729 2729 2729 2728 2729 2730 2730 2730 2730 2730 2731 2731 2730 2730 2730
2766 2765 2763 2761 2759 2758 2756 2755 2754 2753 2751 2749 2747 2747 2746 2745 2744 2742 2740 2738 2737 2736 2734 2732 2731 2730 2729 2729 2728 2728 2728 2728 2728 2728 2728 2728 2728 2727 2726 2724 2723 2723 2723 2724 2724 2723 2723 2723 2723 2722 2723 2723 2723 2724 2724 2724 2724 2724 2725 2725 2724 2723 2724
2760 2759 2757 2754 2753 2751 2750 2748 2748 2746 2744 2741 2740 2739 2739 2738 2737 2735 2733 2731 2730 2728 2726 2724 2723 2722 2722 2722 2721 2721 2721 2721 2721 2720 2720 2720 2720 2720 2719 2718 2716 2715 2716 2717 2717 2716 2716 2717 2717 2716 2717 2717 2717 2718 2719 2719 2719 2719 2719 2719 2717 2717 2719
2754 2752 2750 2748 2746 2745 2743 2742 2740 2738 2736 2734 2733 2731 2730 2729 2728 2727 2726 2725 2723 2720 2718 2716 2715 2715 2715 2715 2714 2713 2713 2713 2713 2713 2712 2713 2713 2712 2711 2711 2710 2710 2710 2710 2710 2710 2710 2710 2710 2710 2710 2710 2710 2711 2712 2712 2713 2712 2712 2712 2712 2711 2713
2750 2747 2744 2741 2739 2737 2736 2735 2733 2732 2730 2728 2727 2725 2723 2721 2719 2717 2716 2715 2714 2712 2710 2709 2708 2707 2707 2707 2706 2706 2706 2706 2705 2705 2705 2705 2705 2704 2704 2704 2704 2705 2704 2704 2703 2704 2704 2703 2703 2703 2704 2704 2704 2705 2705 2706 2706 2706 2706 2706 2706 2705 2706
2745 2742 2739 2736 2733 2731 2728 2727 2725 2724 2723 2722 2720 2718 2716 2715 2713 2712 2709 2707 2705 2702 2700 2699 2699 2698 2698 2699 2698 2698 2698 2697 2697 2697 2697 2697 2696 2696 2697 2697 2697 2698 2698 2697 2696 2697 2697 2697 2697 2697 2698 2698 2698 2698 2699 2699 2700 2700 2700 2699 2699 2699 2699
2739 2737 2734 2731 2729 2726 2723 2720 2718 2716 2715 2714 2712 2710 2708 2707 2706 2705 2704 2702 2700 2696 2693 2692 2690 2689 2689 2690 2690 2690 2690 2689 2688 2689 2689 2688 2688 2689 2689 2690 2690 2690 2690 2690 2690 2690 2690 2690 2691 2691 2691 2691 2691 2691 2692 2692 2693 2694 2694 2693 2692 2692 2693
2735 2731 2728 2726 2724 2721 2718 2715 2713 2711 2709 2707 2705 2703 2701 2699 2697 2697 2697 2696 2694 2691 2689 2688 2685 2683 2682 2681 2681 2681 2681 2680 2680 2680 2680 2680 2680 2681 2681 2681 2682 2682 2683 2683 2684 2683 2683 2684 2684 2684 2685 2685 2685 2685 2685 2686 2687 2687 2687 2687 2686 2686 2686
2730 2727 2723 2721 2718 2715 2713 2710 2708 2705 2703 2701 2698 2696 2693 2691 2689 2689 2689 2689 2687 2685 2683 2682 2680 2678 2677 2675 2674 2674 2674 2673 2673 2672 2672 2672 2672 2673 2673 2673 2673 2674 2675 2676 2677 2677 2677 2677 2677 2677 2678 2678 2678 2679 2679 2680 2680 2681 2681 2681 2681 2680 2680
2722 2720 2718 2715 2712 2709 2706 2704 2702 2700 2697 2695 2692 2690 2686 2683 2681 2681 2680 2680 2680 2678 2676 2674 2673 2672 2671 2669 2668 2667 2667 2667 2666 2666 2665 2665 2665 2665 2665 2665 2665 2666 2667 2668 2669 2670 2670 2670 2670 2671 2672 2672 2672 2673 2673 2673 2674 2674 2674 2675 2675 2674 2674